Wetterdaten: Montag, 15.09.2014
Datum Zeit Temp. A. Feuchte A. Luftdruck Regen Wind Richtung Richtung Sonnenschein ET UV Solar Taupunkt Windchill Windben Empfang
15.09.2014 00:00 10,4 C 94 % 1016,0 hPa 0,0 l/m 0,0 km/h (0 Bft) SO 129 0 min 0,000 mm 0,0 UV-I 0 W/m 9,5 C 10,4 C 0,0 km/h (0 Bft) 0,00 %
15.09.2014 00:15 10,3 C 94 % 1016,1 hPa 0,0 l/m 0,0 km/h (0 Bft) SO 129 0 min 0,000 mm 0,0 UV-I 0 W/m 9,4 C 10,3 C 0,0 km/h (0 Bft) 0,00 %
15.09.2014 00:30 10,3 C 94 % 1016,0 hPa 0,0 l/m 0,0 km/h (0 Bft) SO 129 0 min 0,000 mm 0,0 UV-I 0 W/m 9,4 C 10,3 C 0,0 km/h (0 Bft) 0,00 %
15.09.2014 00:45 10,2 C 95 % 1016,0 hPa 0,0 l/m 0,0 km/h (0 Bft) SO 129 0 min 0,000 mm 0,0 UV-I 0 W/m 9,4 C 10,2 C 0,0 km/h (0 Bft) 0,00 %
15.09.2014 01:00 10,4 C 95 % 1016,1 hPa 0,0 l/m 0,0 km/h (0 Bft) SO 129 0 min 0,000 mm 0,0 UV-I 0 W/m 9,6 C 10,4 C 0,0 km/h (0 Bft) 0,00 %
15.09.2014 01:15 10,6 C 95 % 1015,9 hPa 0,0 l/m 0,0 km/h (0 Bft) W-SW 252 0 min 0,000 mm 0,0 UV-I 0 W/m 9,8 C 10,6 C 0,0 km/h (0 Bft) 0,00 %
15.09.2014 01:30 10,8 C 94 % 1016,1 hPa 0,0 l/m 0,0 km/h (0 Bft) W-SW 256 0 min 0,000 mm 0,0 UV-I 0 W/m 9,9 C 10,8 C 0,0 km/h (0 Bft) 0,00 %
15.09.2014 01:45 11,0 C 94 % 1015,9 hPa 0,0 l/m 0,0 km/h (0 Bft) W-SW 256 0 min 0,000 mm 0,0 UV-I 0 W/m 10,1 C 11,0 C 0,0 km/h (0 Bft) 0,00 %
15.09.2014 02:00 11,3 C 94 % 1015,8 hPa 0,0 l/m 0,0 km/h (0 Bft) W-SW 256 0 min 0,000 mm 0,0 UV-I 0 W/m 10,4 C 11,3 C 0,0 km/h (0 Bft) 0,00 %
15.09.2014 02:15 11,4 C 94 % 1015,9 hPa 0,0 l/m 0,0 km/h (0 Bft) W-SW 256 0 min 0,000 mm 0,0 UV-I 0 W/m 10,5 C 11,4 C 0,0 km/h (0 Bft) 0,00 %
15.09.2014 02:30 11,2 C 94 % 1015,9 hPa 0,0 l/m 0,0 km/h (0 Bft) W-SW 256 0 min 0,000 mm 0,0 UV-I 0 W/m 10,3 C 11,2 C 0,0 km/h (0 Bft) 0,00 %
15.09.2014 02:45 11,0 C 95 % 1015,9 hPa 0,0 l/m 0,0 km/h (0 Bft) W-SW 256 0 min 0,000 mm 0,0 UV-I 0 W/m 10,2 C 11,0 C 0,0 km/h (0 Bft) 0,00 %
15.09.2014 03:00 10,6 C 95 % 1015,9 hPa 0,0 l/m 0,0 km/h (0 Bft) W-SW 256 0 min 0,000 mm 0,0 UV-I 0 W/m 9,8 C 10,6 C 0,0 km/h (0 Bft) 0,00 %
15.09.2014 03:15 10,5 C 95 % 1016,1 hPa 0,0 l/m 0,0 km/h (0 Bft) W-SW 256 0 min 0,000 mm 0,0 UV-I 0 W/m 9,7 C 10,5 C 0,0 km/h (0 Bft) 0,00 %
15.09.2014 03:30 10,5 C 95 % 1015,9 hPa 0,0 l/m 0,0 km/h (0 Bft) S 179 0 min 0,000 mm 0,0 UV-I 0 W/m 9,7 C 10,5 C 0,0 km/h (0 Bft) 0,00 %
15.09.2014 03:45 10,4 C 95 % 1015,9 hPa 0,0 l/m 0,0 km/h (0 Bft) S 177 0 min 0,000 mm 0,0 UV-I 0 W/m 9,6 C 10,4 C 0,0 km/h (0 Bft) 0,00 %
15.09.2014 04:00 10,3 C 95 % 1016,1 hPa 0,0 l/m 0,0 km/h (0 Bft) S 180 0 min 0,000 mm 0,0 UV-I 0 W/m 9,5 C 10,3 C 0,0 km/h (0 Bft) 0,00 %
15.09.2014 04:15 10,1 C 96 % 1015,9 hPa 0,0 l/m 0,0 km/h (0 Bft) S 180 0 min 0,000 mm 0,0 UV-I 0 W/m 9,5 C 10,1 C 0,0 km/h (0 Bft) 0,00 %
15.09.2014 04:30 9,9 C 96 % 1015,8 hPa 0,0 l/m 0,0 km/h (0 Bft) S 180 0 min 0,000 mm 0,0 UV-I 0 W/m 9,3 C 9,9 C 0,0 km/h (0 Bft) 0,00 %
15.09.2014 04:45 9,8 C 96 % 1016,0 hPa 0,0 l/m 0,0 km/h (0 Bft) S 180 0 min 0,000 mm 0,0 UV-I 0 W/m 9,2 C 9,8 C 0,0 km/h (0 Bft) 0,00 %
15.09.2014 05:00 9,7 C 96 % 1015,9 hPa 0,0 l/m 0,0 km/h (0 Bft) S 180 0 min 0,000 mm 0,0 UV-I 0 W/m 9,1 C 9,7 C 0,0 km/h (0 Bft) 0,00 %
15.09.2014 05:15 9,5 C 96 % 1016,0 hPa 0,0 l/m 0,0 km/h (0 Bft) O 101 0 min 0,000 mm 0,0 UV-I 0 W/m 8,9 C 9,5 C 0,0 km/h (0 Bft) 0,00 %
15.09.2014 05:30 9,5 C 96 % 1016,0 hPa 0,0 l/m 0,0 km/h (0 Bft) S 179 0 min 0,000 mm 0,0 UV-I 0 W/m 8,9 C 9,5 C 0,0 km/h (0 Bft) 0,00 %
15.09.2014 05:45 9,6 C 96 % 1016,1 hPa 0,0 l/m 0,0 km/h (0 Bft) S 182 0 min 0,000 mm 0,0 UV-I 0 W/m 9,0 C 9,6 C 0,0 km/h (0 Bft) 0,00 %
15.09.2014 06:00 9,9 C 96 % 1015,9 hPa 0,0 l/m 0,0 km/h (0 Bft) S 176 0 min 0,000 mm 0,0 UV-I 0 W/m 9,3 C 9,9 C 0,0 km/h (0 Bft) 0,00 %
15.09.2014 06:15 10,0 C 96 % 1015,8 hPa 0,0 l/m 0,0 km/h (0 Bft) S-SW 194 0 min 0,000 mm 0,0 UV-I 0 W/m 9,4 C 10,0 C 0,0 km/h (0 Bft) 0,00 %
15.09.2014 06:30 9,9 C 96 % 1016,3 hPa 0,0 l/m 0,0 km/h (0 Bft) S 191 0 min 0,000 mm 0,0 UV-I 0 W/m 9,3 C 9,9 C 0,0 km/h (0 Bft) 0,00 %
15.09.2014 06:45 9,8 C 96 % 1016,3 hPa 0,0 l/m 0,0 km/h (0 Bft) S-SW 192 0 min 0,000 mm 1,0 UV-I 0 W/m 9,2 C 9,8 C 0,0 km/h (0 Bft) 0,00 %
15.09.2014 07:00 10,0 C 96 % 1016,2 hPa 0,0 l/m 0,0 km/h (0 Bft) S-SW 192 0 min 0,000 mm 1,0 UV-I 6 W/m 9,4 C 10,0 C 0,0 km/h (0 Bft) 0,00 %
15.09.2014 07:15 10,2 C 96 % 1016,2 hPa 0,0 l/m 0,0 km/h (0 Bft) S-SW 198 0 min 0,000 mm 1,0 UV-I 9 W/m 9,6 C 10,2 C 0,0 km/h (0 Bft) 0,00 %
15.09.2014 07:30 10,6 C 96 % 1016,1 hPa 0,0 l/m 0,0 km/h (0 Bft) S-SW 198 0 min 0,000 mm 1,0 UV-I 34 W/m 10,0 C 10,6 C 0,0 km/h (0 Bft) 0,00 %
15.09.2014 07:45 10,8 C 95 % 1016,2 hPa 0,0 l/m 0,0 km/h (0 Bft) S-SW 200 0 min 0,000 mm 1,0 UV-I 54 W/m 10,0 C 10,8 C 0,0 km/h (0 Bft) 0,00 %
15.09.2014 08:00 11,3 C 95 % 1016,1 hPa 0,0 l/m 0,0 km/h (0 Bft) S-SW 213 0 min 0,000 mm 1,0 UV-I 65 W/m 10,5 C 11,3 C 0,0 km/h (0 Bft) 0,00 %
15.09.2014 08:15 11,7 C 95 % 1016,0 hPa 0,0 l/m 0,0 km/h (0 Bft) W-SW 256 0 min 0,000 mm 1,0 UV-I 77 W/m 10,9 C 11,7 C 0,0 km/h (0 Bft) 0,00 %
15.09.2014 08:30 12,2 C 95 % 1015,9 hPa 0,0 l/m 0,0 km/h (0 Bft) W 276 0 min 0,000 mm 1,0 UV-I 92 W/m 11,4 C 12,2 C 0,0 km/h (0 Bft) 0,00 %
15.09.2014 08:45 12,4 C 95 % 1015,9 hPa 0,0 l/m 0,0 km/h (0 Bft) N-NW 344 0 min 0,000 mm 1,0 UV-I 95 W/m 11,6 C 12,4 C 0,0 km/h (0 Bft) 0,00 %
15.09.2014 09:00 12,4 C 95 % 1015,9 hPa 0,0 l/m 0,0 km/h (0 Bft) N 352 0 min 0,000 mm 1,0 UV-I 101 W/m 11,6 C 12,4 C 0,0 km/h (0 Bft) 0,00 %
15.09.2014 09:15 12,5 C 95 % 1015,9 hPa 0,0 l/m 1,8 km/h (1 Bft) N-NW 345 0 min 0,000 mm 2,0 UV-I 127 W/m 11,7 C 12,5 C 4,0 km/h (1 Bft) 0,00 %
15.09.2014 09:30 12,7 C 95 % 1016,2 hPa 0,0 l/m 0,0 km/h (0 Bft) SW 229 0 min 0,000 mm 1,0 UV-I 102 W/m 11,9 C 12,7 C 0,0 km/h (0 Bft) 0,00 %
15.09.2014 09:45 12,8 C 95 % 1016,1 hPa 0,0 l/m 0,0 km/h (0 Bft) NO 44 0 min 0,000 mm 2,0 UV-I 110 W/m 12,0 C 12,8 C 0,0 km/h (0 Bft) 0,00 %
15.09.2014 10:00 13,2 C 93 % 1016,0 hPa 0,0 l/m 0,7 km/h (0 Bft) O-SO 102 0 min 0,000 mm 2,0 UV-I 149 W/m 12,1 C 13,2 C 4,0 km/h (1 Bft) 0,00 %
15.09.2014 10:15 13,4 C 91 % 1016,1 hPa 0,0 l/m 0,0 km/h (0 Bft) NO 55 0 min 0,000 mm 3,0 UV-I 149 W/m 12,0 C 13,4 C 0,0 km/h (0 Bft) 0,00 %
15.09.2014 10:30 13,6 C 90 % 1016,1 hPa 0,0 l/m 1,4 km/h (1 Bft) NO 46 0 min 0,000 mm 4,0 UV-I 168 W/m 12,0 C 13,6 C 4,0 km/h (1 Bft) 0,00 %
15.09.2014 10:45 13,9 C 85 % 1016,0 hPa 0,0 l/m 0,4 km/h (0 Bft) S-SW 202 0 min 0,000 mm 4,0 UV-I 220 W/m 11,4 C 13,9 C 4,0 km/h (1 Bft) 0,00 %
15.09.2014 11:00 14,4 C 84 % 1015,6 hPa 0,0 l/m 0,0 km/h (0 Bft) NO 39 0 min 0,000 mm 5,0 UV-I 218 W/m 11,7 C 14,4 C 0,0 km/h (0 Bft) 0,00 %
15.09.2014 11:15 15,8 C 78 % 1015,4 hPa 0,0 l/m 2,2 km/h (1 Bft) O-NO 76 0 min 0,000 mm 4,0 UV-I 229 W/m 12,0 C 15,8 C 4,0 km/h (1 Bft) 0,00 %
15.09.2014 11:30 16,6 C 76 % 1015,3 hPa 0,0 l/m 0,0 km/h (0 Bft) SW 217 0 min 0,000 mm 3,0 UV-I 241 W/m 12,3 C 16,6 C 0,0 km/h (0 Bft) 0,00 %
15.09.2014 11:45 17,5 C 74 % 1014,8 hPa 0,0 l/m 0,4 km/h (0 Bft) N 355 15 min 0,000 mm 4,0 UV-I 570 W/m 12,8 C 17,5 C 4,0 km/h (1 Bft) 0,00 %
15.09.2014 12:00 16,6 C 75 % 1014,8 hPa 0,0 l/m 0,7 km/h (0 Bft) N 350 0 min 0,000 mm 6,0 UV-I 310 W/m 12,1 C 16,6 C 4,0 km/h (1 Bft) 0,00 %
15.09.2014 12:15 17,7 C 72 % 1015,0 hPa 0,0 l/m 2,9 km/h (1 Bft) NO 35 0 min 0,000 mm 6,0 UV-I 350 W/m 12,6 C 17,7 C 4,0 km/h (1 Bft) 0,00 %
15.09.2014 12:30 16,8 C 74 % 1014,8 hPa 0,0 l/m 1,4 km/h (1 Bft) O 79 0 min 0,000 mm 6,0 UV-I 210 W/m 12,1 C 16,8 C 4,0 km/h (1 Bft) 0,00 %
15.09.2014 12:45 17,7 C 71 % 1014,3 hPa 0,0 l/m 0,4 km/h (0 Bft) O 87 15 min 0,000 mm 3,0 UV-I 662 W/m 12,4 C 17,7 C 4,0 km/h (1 Bft) 0,00 %
15.09.2014 13:00 18,1 C 71 % 1014,1 hPa 0,0 l/m 0,0 km/h (0 Bft) O-NO 72 15 min 0,000 mm 3,0 UV-I 707 W/m 12,8 C 18,1 C 0,0 km/h (0 Bft) 0,00 %
15.09.2014 13:15 18,8 C 68 % 1013,7 hPa 0,0 l/m 1,4 km/h (1 Bft) SO 128 15 min 0,000 mm 3,0 UV-I 674 W/m 12,8 C 18,8 C 4,0 km/h (1 Bft) 0,00 %
15.09.2014 13:30 18,9 C 71 % 1014,1 hPa 0,0 l/m 1,4 km/h (1 Bft) O-SO 120 15 min 0,000 mm 3,0 UV-I 723 W/m 13,5 C 18,9 C 4,0 km/h (1 Bft) 0,00 %
15.09.2014 13:45 18,5 C 70 % 1013,6 hPa 0,0 l/m 1,4 km/h (1 Bft) NO 56 15 min 0,000 mm 3,0 UV-I 499 W/m 12,9 C 18,5 C 4,0 km/h (1 Bft) 0,00 %
15.09.2014 14:00 18,6 C 70 % 1013,7 hPa 0,0 l/m 8,3 km/h (2 Bft) O 94 0 min 0,000 mm 3,0 UV-I 248 W/m 13,0 C 17,8 C 11,9 km/h (2 Bft) 0,00 %
15.09.2014 14:15 18,6 C 68 % 1013,3 hPa 0,0 l/m 4,0 km/h (1 Bft) N-NO 30 15 min 0,000 mm 3,0 UV-I 661 W/m 12,6 C 18,6 C 7,9 km/h (2 Bft) 0,00 %
15.09.2014 14:30 19,1 C 66 % 1013,3 hPa 0,0 l/m 5,4 km/h (1 Bft) O 94 15 min 0,000 mm 2,0 UV-I 657 W/m 12,6 C 19,1 C 7,9 km/h (2 Bft) 0,00 %
15.09.2014 14:45 18,7 C 66 % 1013,5 hPa 0,0 l/m 4,3 km/h (1 Bft) O 95 15 min 0,000 mm 2,0 UV-I 650 W/m 12,2 C 18,7 C 7,9 km/h (2 Bft) 0,00 %
15.09.2014 15:00 18,9 C 63 % 1012,9 hPa 0,0 l/m 4,0 km/h (1 Bft) O 87 15 min 0,000 mm 2,0 UV-I 640 W/m 11,7 C 18,9 C 4,0 km/h (1 Bft) 0,00 %
15.09.2014 15:15 19,2 C 64 % 1012,7 hPa 0,0 l/m 6,8 km/h (2 Bft) O-SO 106 15 min 0,000 mm 2,0 UV-I 630 W/m 12,2 C 19,0 C 7,9 km/h (2 Bft) 0,00 %
15.09.2014 15:30 19,0 C 66 % 1013,1 hPa 0,0 l/m 9,4 km/h (2 Bft) O 89 15 min 0,000 mm 2,0 UV-I 620 W/m 12,5 C 17,8 C 15,8 km/h (3 Bft) 0,00 %
15.09.2014 15:45 19,3 C 64 % 1012,4 hPa 0,0 l/m 9,4 km/h (2 Bft) SO 132 15 min 0,000 mm 2,0 UV-I 610 W/m 12,3 C 18,1 C 11,9 km/h (2 Bft) 0,00 %
15.09.2014 16:00 19,4 C 65 % 1012,2 hPa 0,0 l/m 1,8 km/h (1 Bft) S 189 15 min 0,000 mm 2,0 UV-I 600 W/m 12,6 C 19,4 C 4,0 km/h (1 Bft) 0,00 %
15.09.2014 16:15 19,6 C 63 % 1012,0 hPa 0,0 l/m 0,0 km/h (0 Bft) SO 129 15 min 0,000 mm 2,0 UV-I 600 W/m 12,4 C 19,6 C 0,0 km/h (0 Bft) 0,00 %
15.09.2014 16:30 19,6 C 64 % 1011,8 hPa 0,0 l/m 3,2 km/h (1 Bft) SO 131 15 min 0,000 mm 1,0 UV-I 590 W/m 12,6 C 19,6 C 7,9 km/h (2 Bft) 0,00 %
15.09.2014 16:45 20,0 C 60 % 1012,2 hPa 0,0 l/m 4,3 km/h (1 Bft) O-SO 108 15 min 0,000 mm 1,0 UV-I 590 W/m 12,0 C 20,0 C 7,9 km/h (2 Bft) 0,00 %
15.09.2014 17:00 20,1 C 60 % 1012,0 hPa 0,0 l/m 9,4 km/h (2 Bft) O 91 15 min 0,000 mm 1,0 UV-I 556 W/m 12,1 C 19,0 C 11,9 km/h (2 Bft) 0,00 %
15.09.2014 17:15 20,0 C 60 % 1012,1 hPa 0,0 l/m 12,2 km/h (2 Bft) O-NO 78 15 min 0,000 mm 1,0 UV-I 552 W/m 12,0 C 18,0 C 15,8 km/h (3 Bft) 0,00 %
15.09.2014 17:30 19,7 C 61 % 1012,4 hPa 0,0 l/m 7,9 km/h (2 Bft) SO 124 15 min 0,000 mm 1,0 UV-I 508 W/m 12,0 C 19,1 C 15,8 km/h (3 Bft) 0,00 %
15.09.2014 17:45 19,5 C 62 % 1012,3 hPa 0,0 l/m 5,8 km/h (2 Bft) O-SO 118 15 min 0,000 mm 0,0 UV-I 451 W/m 12,0 C 19,5 C 7,9 km/h (2 Bft) 0,00 %
15.09.2014 18:00 19,3 C 62 % 1012,5 hPa 0,0 l/m 7,2 km/h (2 Bft) O-NO 73 15 min 0,000 mm 0,0 UV-I 340 W/m 11,8 C 19,0 C 7,9 km/h (2 Bft) 0,00 %
15.09.2014 18:15 18,9 C 66 % 1012,8 hPa 0,0 l/m 3,2 km/h (1 Bft) SO 139 15 min 0,000 mm 0,0 UV-I 270 W/m 12,4 C 18,9 C 4,0 km/h (1 Bft) 0,00 %
15.09.2014 18:30 18,3 C 67 % 1012,9 hPa 0,0 l/m 1,4 km/h (1 Bft) O-SO 110 15 min 0,000 mm 0,0 UV-I 160 W/m 12,1 C 18,3 C 4,0 km/h (1 Bft) 0,00 %
15.09.2014 18:45 17,9 C 70 % 1013,0 hPa 0,0 l/m 1,8 km/h (1 Bft) O 101 15 min 0,000 mm 0,0 UV-I 96 W/m 12,3 C 17,9 C 4,0 km/h (1 Bft) 0,00 %
15.09.2014 19:00 17,1 C 73 % 1013,5 hPa 0,0 l/m 0,4 km/h (0 Bft) S-SO 168 15 min 0,000 mm 0,0 UV-I 31 W/m 12,2 C 17,1 C 4,0 km/h (1 Bft) 0,00 %
15.09.2014 19:15 16,5 C 75 % 1013,6 hPa 0,0 l/m 0,0 km/h (0 Bft) SO 133 0 min 0,000 mm 0,0 UV-I 4 W/m 12,1 C 16,5 C 0,0 km/h (0 Bft) 0,00 %
15.09.2014 19:30 16,1 C 77 % 1013,7 hPa 0,0 l/m 0,7 km/h (0 Bft) O-NO 77 0 min 0,000 mm 0,0 UV-I 0 W/m 12,1 C 16,1 C 4,0 km/h (1 Bft) 0,00 %
15.09.2014 19:45 16,0 C 78 % 1013,7 hPa 0,0 l/m 0,0 km/h (0 Bft) SO 138 0 min 0,000 mm 0,0 UV-I 0 W/m 12,2 C 16,0 C 0,0 km/h (0 Bft) 0,00 %
15.09.2014 20:00 15,9 C 79 % 1013,9 hPa 0,0 l/m 4,0 km/h (1 Bft) SO 134 0 min 0,000 mm 0,0 UV-I 0 W/m 12,3 C 15,9 C 7,9 km/h (2 Bft) 0,00 %
15.09.2014 20:15 15,9 C 78 % 1013,7 hPa 0,0 l/m 0,7 km/h (0 Bft) O 85 0 min 0,000 mm 0,0 UV-I 0 W/m 12,1 C 15,9 C 4,0 km/h (1 Bft) 0,00 %
15.09.2014 20:30 15,7 C 79 % 1014,0 hPa 0,0 l/m 1,4 km/h (1 Bft) O 85 0 min 0,000 mm 0,0 UV-I 0 W/m 12,1 C 15,7 C 4,0 km/h (1 Bft) 0,00 %
15.09.2014 20:45 15,6 C 80 % 1013,9 hPa 0,0 l/m 1,8 km/h (1 Bft) O 85 0 min 0,000 mm 0,0 UV-I 0 W/m 12,2 C 15,6 C 4,0 km/h (1 Bft) 0,00 %
15.09.2014 21:00 15,3 C 81 % 1014,2 hPa 0,0 l/m 0,7 km/h (0 Bft) O-SO 107 0 min 0,000 mm 0,0 UV-I 0 W/m 12,1 C 15,3 C 4,0 km/h (1 Bft) 0,00 %
15.09.2014 21:15 15,3 C 81 % 1014,0 hPa 0,0 l/m 4,7 km/h (1 Bft) O-NO 64 0 min 0,000 mm 0,0 UV-I 0 W/m 12,1 C 15,3 C 7,9 km/h (2 Bft) 0,00 %
15.09.2014 21:30 15,3 C 81 % 1013,9 hPa 0,0 l/m 0,0 km/h (0 Bft) O-NO 62 0 min 0,000 mm 0,0 UV-I 0 W/m 12,1 C 15,3 C 0,0 km/h (0 Bft) 0,00 %
15.09.2014 21:45 15,2 C 81 % 1014,0 hPa 0,0 l/m 4,0 km/h (1 Bft) S-SW 193 0 min 0,000 mm 0,0 UV-I 0 W/m 12,0 C 15,2 C 7,9 km/h (2 Bft) 0,00 %
15.09.2014 22:00 14,9 C 82 % 1014,1 hPa 0,0 l/m 2,2 km/h (1 Bft) O-NO 67 0 min 0,000 mm 0,0 UV-I 0 W/m 11,9 C 14,9 C 7,9 km/h (2 Bft) 0,00 %
15.09.2014 22:15 14,7 C 84 % 1014,2 hPa 0,0 l/m 2,9 km/h (1 Bft) O 84 0 min 0,000 mm 0,0 UV-I 0 W/m 12,0 C 14,7 C 4,0 km/h (1 Bft) 0,00 %
15.09.2014 22:30 14,4 C 85 % 1014,3 hPa 0,0 l/m 0,0 km/h (0 Bft) O-SO 123 0 min 0,000 mm 0,0 UV-I 0 W/m 11,9 C 14,4 C 0,0 km/h (0 Bft) 0,00 %
15.09.2014 22:45 14,2 C 86 % 1014,3 hPa 0,0 l/m 0,0 km/h (0 Bft) SO 134 0 min 0,000 mm 0,0 UV-I 0 W/m 11,9 C 14,2 C 0,0 km/h (0 Bft) 0,00 %
15.09.2014 23:00 14,2 C 86 % 1014,2 hPa 0,0 l/m 0,0 km/h (0 Bft) NO 51 0 min 0,000 mm 0,0 UV-I 0 W/m 11,9 C 14,2 C 0,0 km/h (0 Bft) 0,00 %
15.09.2014 23:15 13,9 C 88 % 1014,3 hPa 0,0 l/m 0,4 km/h (0 Bft) O-SO 116 0 min 0,000 mm 0,0 UV-I 0 W/m 11,9 C 13,9 C 4,0 km/h (1 Bft) 0,00 %
15.09.2014 23:30 13,8 C 88 % 1014,2 hPa 0,0 l/m 0,0 km/h (0 Bft) O-SO 109 0 min 0,000 mm 0,0 UV-I 0 W/m 11,8 C 13,8 C 0,0 km/h (0 Bft) 0,00 %
15.09.2014 23:45 13,6 C 88 % 1014,1 hPa 0,0 l/m 0,0 km/h (0 Bft) SO 130 0 min 0,000 mm 0,0 UV-I 0 W/m 11,6 C 13,6 C 0,0 km/h (0 Bft) 0,00 %
_ Min-Zeit 05:15 16:45 16:30 - 00:00 - - - - - - 05:15 05:15 00:00 00:00
Minimum _ 9,5 C 60 % 1011,8 hPa - 0,0 km/h (0 Bft) - - - - - - 8,9 C 9,5 C 0,0 km/h (0 Bft) 0,00 %
_ Max-Zeit 17:00 04:15 06:30 00:00 17:15 - - 11:45 00:00 12:00 13:30 13:30 16:45 15:30 00:00
Maximum _ 20,1 C 96 % 1016,3 hPa 0,0 l/m 12,2 km/h
O-NO (2 Bft)
- - 15 min 0,000 mm 6,0 UV-I 723 W/m 13,5 C 20,0 C 15,8 km/h
O (3 Bft)
0,00 %
Durchschnitt _ 14,4 C 83 % 1014,7 hPa #0,0 l/m 1,6 km/h (1 Bft) O - #6:30 h #0,000 mm 2,4 UV-I 340 W/m 11,3 C 14,3 C 3,0 km/h (1 Bft) 0,00 %